Regional Weather Roundup
Issued by NWS Wakefield, VA

Home | Current Version | Previous Version | Text Only | Print | Product List | Glossary Off
Versions: 1 2 3 4 5 6 7 8 9 10 11 12 13 14 15 16 17 18 19 20 21 22 23 24 25 26 27 28 29 30 31 32 33 34 35 36 37 38 39 40 41 42 43 44 45 46 47 48 49 50

000
ASUS41 KAKQ 210114
RWRAKQ

REGIONAL WEATHER ROUNDUP
NATIONAL WEATHER SERVICE WAKEFIELD VA
900 PM EDT MON APR 20 2015

Note: "fair" indicates few or no clouds below 12,000 feet with no
significant weather and/or obstructions to visibility. * = Denotes
station may not report precipitation (e.g., rain,snow,etc.),
thunder or fog.

VAZ042-051-052>054-056-210200-
NORTHERN VIRGINIA

CITY           SKY/WX    TMP DP  RH WIND       PRES   REMARKS
WASH NATIONAL  LGT RAIN  66  59  78 S10       29.53F
DULLES         MOCLDY    65  55  70 SE12      29.50R
FORT BELVOIR   CLOUDY    62  57  83 SE5       29.54R THUNDER
QUANTICO       TSTM      64  54  69 SW16G44   29.55R
FREDERICKSBRG* CLOUDY    66  55  66 W9        29.55R
STAFFORD*      TSTM      59  32  36 S6G23     29.58R
WARRENTON      CLOUDY    69  56  63 S7        29.52R
CULPEPER*      MOCLDY    72  54  53 S5        29.52S
MANASSAS*      PTCLDY    68  55  64 S6        29.51R
LEESBURG*      MOCLDY    72  52  49 S10       29.50R
WINCHESTER     MOCLDY    72  45  37 SW7       29.49R
FRONT ROYAL*   FAIR      70  54  56 SW7       29.48R
LURAY*         MOCLDY    70  54  56 SW22G39   29.53R
$$

VAZ048-049-060>072-079>083-210200-
CENTRAL AND SOUTH CENTRAL VIRGINIA

CITY           SKY/WX    TMP DP  RH WIND       PRES   REMARKS
RICHMOND       CLOUDY    72  60  66 S16G24    29.60R
CHESTERFIELD*  NOT AVBL
PETERSBURG*    CLOUDY    70  61  73 S8        29.64R THUNDER
HANOVER        CLOUDY    73  59  61 S12G18    29.59S
TAPPAHANNOCK*  CLOUDY    73  58  59 S10G17    29.58S
QUINTON*       FAIR      72  62  71 S8        29.60R
CHARLOTTSVILLE MOCLDY    66  54  65 VRB3      29.57R
GORDONSVILLE*  FAIR      65  58  78 SW6       29.54R
ORANGE*        MOCLDY    68  59  73 S6        29.55S
LOUISA*        MOCLDY    72  59  64 S6        29.54R
BUMPASS*       FAIR      72  59  64 S12       29.55R
FARMVILLE*     CLOUDY    72  58  60 S13G18    29.58S
CREWE*         FAIR      69  60  74 S7        29.61R
FORT PICKETT*  FAIR      67  61  80 S12       29.62S
CHASE CITY*    FAIR      70  65  85 S6        29.62S
CLARKSVILLE*   FAIR      68  59  73 S12G24    29.62S
SOUTH HILL*    CLOUDY    69  61  74 S15G25    29.70R
LAWRENCEVILLE* FAIR      66  64  93 S8        29.65R
EMPORIA*       LGT RAIN  64  61  88 S3        29.68R
$$

VAZ088>098-210200-
SOUTHEAST VIRGINIA

CITY           SKY/WX    TMP DP  RH WIND       PRES   REMARKS
NORFOLK        CLOUDY    74  62  66 S15G22    29.65R
VIRGINIA BEACH CLOUDY    75  64  68 S16G24    29.65S
NORFOLK NAVAL  CLOUDY    78  62  57 S9G17     29.66R
WEST POINT*    CLOUDY    75  60  58 S8        29.62R
SALUDA*        FAIR      73  62  67 S14G21    29.59S
NEWPORT NEWS   CLOUDY    77  61  57 S14G20    29.64S
LANGLEY AFB    CLOUDY    74  61  62 S16       29.63R
FORT EUSTIS    CLOUDY    72  61  68 S8        29.61F
WILLIAMSBURG*  CLOUDY    75  63  64 S10       29.63S
HR EXEC AP*    FAIR      73  61  64 S9        29.68R
FRANKLIN*      CLOUDY   N/A N/A N/A S10G17    29.66R
WAKEFIELD      CLOUDY    72  61  68 S8        29.65R
$$

VAZ020-022-025-037-045-210200-
WEST CENTRAL AND SOUTHWEST VIRGINIA

CITY           SKY/WX    TMP DP  RH WIND       PRES   REMARKS
STAUNTON*      CLOUDY    62  53  72 E3        29.57F
WAYNESBORO*    MOCLDY    57  52  82 S9        29.58F
HOT SPRINGS VA MOCLDY    57  45  64 SW17G23   29.62R
LYNCHBURG      PTCLDY    67  52  58 S13       29.59R
DANVILLE       MOCLDY    68  55  63 SW10      29.61R
SOUTH BOSTON*  FAIR      68  57  68 S9G17     29.61S
MARTINSVILLE   PTCLDY    68  53  59 SW8       29.65S
ROANOKE        CLOUDY    61  59  93 NE7       29.60R THUNDER
BLACKSBURG     MOCLDY    59  52  77 SW3       29.66R
DUBLIN*        CLOUDY    60  58  94 SW7       29.66R
MARION*        MOCLDY    63  41  44 W18G29    29.68R
HILLSVILLE*    CLOUDY    56  52  88 W9G21     29.70R
RICHLANDS*     CLOUDY    54  46  75 W12G21    29.71R
WISE*          MOCLDY    52  50  93 W9        29.74R
ABINGDON*      PTCLDY    62  46  55 NW12G21   29.70R
$$

MDZ021>025-VAZ099-100-210200-
SOUTHERN MARYLAND AND THE DELMARVA PENINSULA

CITY           SKY/WX    TMP DP  RH WIND       PRES   REMARKS
PATUXENT RIVER CLOUDY    72  61  68 S13G22    29.55F
BAY BRIDGE APT   N/A    N/A N/A N/A S17G23    29.55S
LEONARDTOWN    CLOUDY    72  59  64 S7        29.57F
DOVER          CLOUDY    70  63  80 S12       29.53F
GEORGETOWN     CLOUDY    68  61  78 S14G23    29.60S
EASTON         CLOUDY    70  66  88 S9        29.60S
CAMBRIDGE      CLOUDY    72  61  68 S12G17    29.56F
SALISBURY      CLOUDY    66  59  78 S8        29.60F
OCEAN CITY     CLOUDY    56  54  93 S6        29.63F
WALLOPS ISLAND CLOUDY    61  58  90 S16       29.63S
ACCOMACK*      CLOUDY    64  59  82 S13       29.62F
$$

NCZ012>017-030>032-210200-
NORTH CENTRAL AND EASTERN NORTH CAROLINA

CITY           SKY/WX    TMP DP  RH WIND       PRES   REMARKS
ROANOKE RAPIDS FAIR      70  63  78 S12G17    29.66R
RALEIGH        CLOUDY    67  63  87 S7        29.66F
ELIZABETH CITY CLOUDY    71  62  73 S12G21    29.69R
AHOSKIE*       CLOUDY    71  60  69 S5        29.68R
EDENTON*       CLOUDY    71  63  75 SW10      29.70R
CURRITUCK*     CLOUDY    72  62  70 S6        29.69R
KILL DEVIL HLS CLOUDY    70  64  83 S10G22    29.70S
MANTEO         CLOUDY    69  65  86 SW21      29.72R
CAPE HATTERAS  CLOUDY    68  65  90 SW13G21   29.76S
TARBORO*       FAIR      73  63  69 S7        29.69R
GOLDSBORO      CLOUDY    72  65  79 S9G17     29.69S
WASHINGTON     CLOUDY    71  62  73 S8        29.72R
GREENVILLE     CLOUDY    72  63  73 SW13G21   29.73R
NEW BERN       CLOUDY    69  63  81 S10       29.75R
WILMINGTON     CLOUDY    69  64  84 SW13      29.78R
$$

VAZ048-210200-
ELSEWHERE

CITY           SKY/WX    TMP DP  RH WIND       PRES   REMARKS
HARRISBURG PA  MOCLDY    64  58  80 E3        29.49R
BALTIMORE      TSTM      69  61  75 S10G18    29.54R
ANNAPOLIS      CLOUDY    68  58  70 S12G23    29.53S
ANDREWS AFB    TSTM      63  57  82 S13G31    29.54R
PHILADELPHIA   CLOUDY    69  61  75 SE12      29.57S
HENDERSON NC   CLOUDY    65  55  68 SW10      29.64F
GREENSBORO     PTCLDY    65  54  67 W10       29.63R
ROCKY MOUNT    CLOUDY    72  63  73 S9        29.68R
$$

VAZ100-210200-
MARINE

STATION/POSITION TIME  TEMP    WIND        PRES    WAVE   SWELL
                       AIR SEA DIR/SP/G            HT/PER HT/PER
                 (UTC) (F)     (DEG/KT/KT) (MB)    (FT/S) (FT/S)
BRANDYWINE LGT   0000   54 52  170/ 21/ 23 1002.1F
CAPE MAY NJ      0000   56 57  150/ 12/ 19 1002.2F
LEWES DE         0000   63 50  160/  5/  7 1002.3R
15NM E FENWICK I 0050   53 47              1002.9F   8/ 9
OCEAN-CITY-INLET 0000   54 51  220/ 12/ 14 1003.3R
WACHAPREAGUE VA  0000   65 66  210/  8/ 12 1003.6R
THOMAS POINT MD  0100   65 56  170/ 17/ 19 1000.7F
GOOSES REEF MD   0100   61 57  180/ 14/ 16   N/A     1/ 2
COVE POINT MD    0000   62     180/ 18/ 19 1000.5F
SOLOMONS ISLAND  0000      58                N/A
BISHOPS HEAD MD  0000   69 65  180/ 15/ 19 1001.3F
PINEY POINT MD   0012          190/ 16/ 17   N/A
CAMBRIDGE MD     0000   72 59  180/  6/ 12 1001.2S
LEWISETTA VA     0000   73 66              1001.3R
RAPPAHANNOCK LGT 0000          170/ 16/ 17 1003.2R
STINGRAY PT      0100   64 58  180/ 14/ 16 1004.3F   1/ 2
YORK RVR RNG VA  0000   70     190/ 16/ 18 1002.5R
YORKTOWN VA      0000   75 62  190/ 12/ 16 1002.7R
DOMINION TERM VA 0000   73     200/ 14/ 17 1003.2F
KIPTOPEKE VA     0000      63  170/ 13/ 15   N/A
CHES BAY BRIDGE  0000   73 57  170/ 14/ 18 1003.1R
CAPE HENRY VA    0000   74     170/ 10/ 16 1002.6R
CHESAPEAKE LGHT  0000   63     190/ 26/ 27 1004.3R
WILLOUBY STN VA  0000   75     200/ 17/ 22 1003.9S
S CRANEY ISL VA  0000          180/ 14/ 20 1003.4F
CAPE HENRY BUOY  0028      55                N/A     6/ 8
1ST LANDING BUOY 0100   69     190/ 16/ 19 1003.6R   4/ 4
OFFSHORE WE BUOY 0011      50                N/A     7/ 8   5/ 8
64NM E OF VA BCH 0050   62 58  200/ 17/ 21 1005.3S   6/ 8   3/ 8
DUCK PIER NC     0000   71 52  190/ 11/ 14 1004.5R
44056 DUCK FRF   0011      57                N/A     5/ 8   2/13
OREGON INLET NC  0000   69 68  190/ 21/ 25 1006.5R
HATTERAS NC      0000   71 68  190/  7/ 14 1007.2R
DIAMOND SHLS NC  0050   74 75  200/ 21/ 25 1007.5F   5/ 6   3/ 7
CAPE LOOKOUT NC  0100   68     200/ 10/ 13 1007.8R
$$


USA.gov is the U.S. government's official web portal to all federal, state and local government web resources and services.